sat.trackr.live / text

‹ back to catalog

STARLINK-34907

NORAD 65213 · 2025-176R

PAYLOAD ACTIVE UNKNOWN

§ Identity

Operator
Country
US
Launch date
2025-08-14
Launch site
AFETR
Launch vehicle
Mass (kg)
RCS (m²)

Purposes: comms

External: N2YO · Heavens-Above · Gunter

§ Orbital elements

Epoch: 2026-05-25T00:41:25.322784Z

Period
93.85 min
Inclination
53.1604°
Eccentricity
0.0001511
Mean motion
15.34370663 rev/d
Perigee alt
461.8 km
Apogee alt
463.8 km
Semi-major
6,840.9 km
B*
5.5079e-4
RAAN
157.7604°
Arg perigee
96.6946°
Mean anomaly
263.4228°
Rev number
4,481

§ Raw data

STARLINK-349071 65213U 25176R   26145.02876531  .00018261  00000+0  55079-3 0  99942 65213  53.1604 157.7604 0001511  96.6946 263.4228 15.34370663 44818

JSON: /api/v1/satellites/65213 · /tle

For live sub-satellite position, see the globe view (requires WebGL).

§ Visibility from observer

Set your observer location to see the next 7 days of passes ≥ 10°. The values pass through the URL so the page stays shareable.

No JS? Fill the form by hand. The geolocation button needs JavaScript.